SCP
0 0 0 0 0 0 0 0 0 0 0 0 0 0 0 0 0 0 0 0 0 0 0 0 0 0 0 0 0 0 0 0
0 0 0 0 0 0 0 0 0 0 0 0 0 0 0 0 0 0 0 0 0 0 0 0 0 0 0 0 0 0 0 0
0 0 0 0 0 0 0 0 0 0 0 0 0 0 0 0 0 0 0 0 0 0 0 0 0 0 0 0 0 0 0 0
0 0 0 0 0 0 0 0 0 0 0 0 0 0 0 0 0 0 0 0 0 0 0 0 0 0 0 0 0 0 0 0
0 0 0 0 0 0 0 0 0 0 0 0 0 0 0 0 0 0 0 0 0 0 0 0 0 0 0 0 0 0 0 0
0 0 0 0 0 0 0 0 0 0 0 0 0 0 0 0 0 0 0 0 0 0 0 0 0 0 0 0 0 0 0 0
0 0 0 0 0 0 0 0 0 0 0 0 0 0 0 0 0 0 0 0 0 0 0 0 0 0 0 0 0 0 0 0
0 0 0 0 0 0 0 0 0 0 0 0 0 0 0 0 0 0 0 0 0 0 0 0 0 0 0 0 0 0 0 0
0 0 0 0 0 0 0 0 0 0 0 0 0 0 0 0 0 0 0 0 0 0 0 0 0 0 0 0 0 0 0 0
0 0 0 0 0 0 0 0 0 0 0 0 0 0 0 0 0 0 0 0 0 0 0 0 0 0 0 0 0 0 0 0
0 0 0 0 0 0 0 0 0 0 0 0 0 0 0 0 0 0 0 0 0 0 0 0 0 0 0 0 0 0 0 0
0 0 0 0 0 0 0 0 0 0 0 0 0 0 0 0 0 0 0 0 0 0 0 0 0 0 0 0 0 0 0 0
0 0 0 0 0 0 0 0 0 0 0 0 0 0 0 0 0 0 0 0 0 0 0 0 0 0 0 0 0 0 0 0
0 0 0 0 0 0 0 0 0 0 0 0 0 0 0 0 0 0 0 0 0 0 0 0 0 0 0 0 0 0 0 0
0 0 0 0 0 0 0 0 0 0 0 0 0 0 0 0 0 0 0 0 0 0 0 0 0 0 0 0 0 0 0 0
0 0 0 0 0 0 0 0 0 0 0 0 0 0 0 0 0 0 0 0 0 0 0 0 0 0 0 0 0 0 0 0
0 0 0 0 0 0 0 0 0 0 0 0 0 0 0 0 0 0 0 0 0 0 0 0 0 0 0 0 0 0 0 0
0 0 0 0 0 0 0 0 0 0 0 0 0 0 0 0 0 0 0 0 0 0 0 0 0 0 0 0 0 0 0 0
0 0 0 0 0 0 0 0 0 0 0 0 0 0 0 0 0 0 0 0 0 0 0 0 0 0 0 0 0 0 0 0
0 0 0 0 0 0 0 0 0 0 0 0 0 0 0 0 0 0 0 0 0 0 0 0 0 0 0 0 0 0 0 0
Wind_Speed_500mb
81 76 68 60 51 44 43 43 39 39 38 35 31 32 32 34 35 35 35 39 42 43 46 48 50 53 56 59 61 64 62 64
82 78 72 64 60 54 50 49 46 44 40 38 35 33 35 38 39 39 41 43 45 47 49 53 54 56 60 61 65 68 67 65
74 75 75 70 66 63 57 53 50 46 45 45 43 40 42 42 42 43 47 48 50 51 54 56 58 59 63 66 67 71 70 69
74 75 74 75 72 68 61 57 52 50 50 50 49 47 49 47 46 48 50 51 52 55 57 58 60 62 65 68 71 71 70 73
78 83 80 77 75 71 65 59 54 51 53 55 53 50 50 49 51 51 52 53 55 57 59 61 63 66 68 70 72 72 75 76
85 86 86 83 79 73 68 62 54 55 55 57 50 48 50 52 51 53 55 56 57 58 61 63 66 68 70 70 73 76 78 78
82 85 86 86 81 74 70 65 59 58 57 52 50 49 51 51 53 55 56 57 58 60 63 66 67 68 66 68 73 75 77 80
80 81 80 82 78 73 65 60 60 58 55 53 50 49 49 51 55 56 56 55 59 62 65 66 66 65 66 68 71 75 76 78
78 77 72 72 71 62 58 59 57 56 53 50 46 48 48 53 55 54 53 57 61 63 64 66 64 63 66 67 71 74 75 78
69 70 73 68 62 58 59 57 55 52 47 42 43 48 51 52 52 53 56 59 60 62 62 63 63 63 65 68 72 73 76 76
51 53 58 64 61 61 59 53 51 43 40 40 47 48 50 50 50 53 57 58 60 60 61 62 62 61 65 66 66 72 76 80
53 57 62 60 62 61 55 53 40 38 41 44 44 47 48 49 52 54 55 59 60 61 59 60 61 63 65 64 58 62 74 79
59 57 53 57 59 57 53 40 39 42 42 43 46 47 47 49 51 53 57 58 57 59 60 59 60 62 64 62 48 54 60 71
60 54 56 56 57 54 43 39 42 42 42 44 44 44 47 49 50 52 52 53 56 60 62 63 65 68 68 65 64 52 55 62
62 59 56 56 53 44 40 43 41 40 41 41 41 43 45 46 47 47 48 50 54 58 61 64 68 73 71 67 67 65 66 72
64 56 55 54 50 46 44 41 40 39 39 38 40 42 41 41 43 45 46 48 50 55 60 67 72 70 53 55 59 63 63 61
58 50 52 50 49 45 42 41 39 37 36 36 38 36 37 39 40 43 45 45 47 54 60 62 64 60 51 52 52 52 54 65
60 51 52 51 47 43 42 38 35 33 33 34 32 33 35 36 39 41 41 43 45 51 57 60 61 60 48 48 46 55 56 55
53 51 50 46 44 42 40 37 33 31 31 28 27 29 31 33 38 44 49 52 50 43 49 55 52 53 48 42 52 53 49 50
54 51 50 47 45 42 38 34 30 27 23 22 24 25 28 33 38 41 45 47 48 49 41 45 45 48 47 45 47 50 50 47
Wind_Direction_500mb
226 225 226 228 231 233 235 238 239 242 245 247 256 263 271 276 284 291 297 298 301 303 304 306 307 309 312 314 317 317 316 315
226 225 226 227 229 232 237 240 239 243 248 251 257 264 269 274 281 287 290 295 297 299 300 300 301 304 305 308 312 312 311 311
227 226 225 225 227 230 235 241 243 244 246 250 255 260 267 275 283 284 285 287 291 294 297 297 298 300 303 305 306 309 309 309
228 227 226 226 226 229 233 238 243 244 246 249 254 261 267 273 278 280 283 287 288 291 295 296 296 298 300 301 302 305 307 307
228 228 228 228 228 230 234 238 242 245 248 250 253 261 267 270 275 282 285 287 289 290 293 295 296 296 298 298 300 305 307 305
230 231 230 229 231 232 235 239 243 246 248 250 257 262 269 270 277 282 285 287 289 290 294 294 294 296 297 298 303 304 303 302
234 233 232 231 231 232 235 239 242 245 249 252 258 264 270 271 276 282 286 288 289 291 292 292 293 294 296 300 300 301 302 304
239 235 234 233 231 232 234 237 241 244 248 251 258 266 269 274 278 284 287 288 289 289 290 291 293 295 297 298 299 298 301 303
245 237 236 234 231 231 230 232 236 242 245 250 259 266 272 277 282 285 286 287 287 289 292 293 295 296 297 297 297 299 301 302
243 243 240 233 227 227 228 229 236 240 244 252 262 268 275 280 282 284 287 288 289 291 292 293 294 297 298 297 297 300 300 304
230 227 218 217 218 219 223 230 237 238 247 255 261 272 279 281 285 286 286 288 291 291 292 295 298 300 299 297 300 303 305 307
215 214 211 210 211 214 217 230 235 240 246 258 269 274 278 283 285 286 289 291 292 294 298 298 298 298 298 301 304 305 306 308
206 204 204 205 207 209 222 228 230 241 254 264 269 274 281 285 287 290 291 292 295 298 298 298 298 299 301 308 306 303 301 303
203 198 199 204 204 215 221 226 234 247 257 265 273 280 284 287 288 290 292 297 297 298 301 304 305 307 312 316 315 308 304 300
193 195 201 201 209 217 221 227 238 248 259 268 276 282 285 287 289 292 294 295 298 301 303 306 308 309 315 320 322 315 307 314
190 196 200 203 210 215 224 232 239 250 259 269 279 281 285 289 292 293 294 298 302 307 309 310 309 314 317 314 311 312 312 303
193 194 198 205 213 222 227 232 242 252 261 270 274 278 284 289 290 295 299 304 307 307 306 305 306 310 314 314 314 310 302 301
195 195 205 211 217 221 228 236 246 252 261 264 269 277 282 290 297 299 300 304 308 309 308 310 310 311 319 319 314 300 309 310
197 202 208 213 217 223 231 238 244 250 255 260 269 279 291 297 301 306 310 313 316 317 315 313 316 314 319 320 313 317 314 315
201 206 208 212 218 225 230 233 236 241 246 258 273 287 296 303 307 310 314 317 320 321 321 317 321 321 321 322 318 319 321 322
Wind_Speed_850mb
81 76 68 60 51 44 43 43 39 39 38 35 31 32 32 34 35 35 35 39 42 43 46 48 50 53 56 59 61 64 62 64
82 78 72 64 60 54 50 49 46 44 40 38 35 33 35 38 39 39 41 43 45 47 49 53 54 56 60 61 65 68 67 65
74 75 75 70 66 63 57 53 50 46 45 45 43 40 42 42 42 43 47 48 50 51 54 56 58 59 63 66 67 71 70 69
74 75 74 75 72 68 61 57 52 50 50 50 49 47 49 47 46 48 50 51 52 55 57 58 60 62 65 68 71 71 70 73
78 83 80 77 75 71 65 59 54 51 53 55 53 50 50 49 51 51 52 53 55 57 59 61 63 66 68 70 72 72 75 76
85 86 86 83 79 73 68 62 54 55 55 57 50 48 50 52 51 53 55 56 57 58 61 63 66 68 70 70 73 76 78 78
82 85 86 86 81 74 70 65 59 58 57 52 50 49 51 51 53 55 56 57 58 60 63 66 67 68 66 68 73 75 77 80
80 81 80 82 78 73 65 60 60 58 55 53 50 49 49 51 55 56 56 55 59 62 65 66 66 65 66 68 71 75 76 78
78 77 72 72 71 62 58 59 57 56 53 50 46 48 48 53 55 54 53 57 61 63 64 66 64 63 66 67 71 74 75 78
69 70 73 68 62 58 59 57 55 52 47 42 43 48 51 52 52 53 56 59 60 62 62 63 63 63 65 68 72 73 76 76
51 53 58 64 61 61 59 53 51 43 40 40 47 48 50 50 50 53 57 58 60 60 61 62 62 61 65 66 66 72 76 80
53 57 62 60 62 61 55 53 40 38 41 44 44 47 48 49 52 54 55 59 60 61 59 60 61 63 65 64 58 62 74 79
59 57 53 57 59 57 53 40 39 42 42 43 46 47 47 49 51 53 57 58 57 59 60 59 60 62 64 62 48 54 60 71
60 54 56 56 57 54 43 39 42 42 42 44 44 44 47 49 50 52 52 53 56 60 62 63 65 68 68 65 64 52 55 62
62 59 56 56 53 44 40 43 41 40 41 41 41 43 45 46 47 47 48 50 54 58 61 64 68 73 71 67 67 65 66 72
64 56 55 54 50 46 44 41 40 39 39 38 40 42 41 41 43 45 46 48 50 55 60 67 72 70 53 55 59 63 63 61
58 50 52 50 49 45 42 41 39 37 36 36 38 36 37 39 40 43 45 45 47 54 60 62 64 60 51 52 52 52 54 65
60 51 52 51 47 43 42 38 35 33 33 34 32 33 35 36 39 41 41 43 45 51 57 60 61 60 48 48 46 55 56 55
53 51 50 46 44 42 40 37 33 31 31 28 27 29 31 33 38 44 49 52 50 43 49 55 52 53 48 42 52 53 49 50
54 51 50 47 45 42 38 34 30 27 23 22 24 25 28 33 38 41 45 47 48 49 41 45 45 48 47 45 47 50 50 47
Wind_Direction_850mb
226 225 226 228 231 233 235 238 239 242 245 247 256 263 271 276 284 291 297 298 301 303 304 306 307 309 312 314 317 317 316 315
226 225 226 227 229 232 237 240 239 243 248 251 257 264 269 274 281 287 290 295 297 299 300 300 301 304 305 308 312 312 311 311
227 226 225 225 227 230 235 241 243 244 246 250 255 260 267 275 283 284 285 287 291 294 297 297 298 300 303 305 306 309 309 309
228 227 226 226 226 229 233 238 243 244 246 249 254 261 267 273 278 280 283 287 288 291 295 296 296 298 300 301 302 305 307 307
228 228 228 228 228 230 234 238 242 245 248 250 253 261 267 270 275 282 285 287 289 290 293 295 296 296 298 298 300 305 307 305
230 231 230 229 231 232 235 239 243 246 248 250 257 262 269 270 277 282 285 287 289 290 294 294 294 296 297 298 303 304 303 302
234 233 232 231 231 232 235 239 242 245 249 252 258 264 270 271 276 282 286 288 289 291 292 292 293 294 296 300 300 301 302 304
239 235 234 233 231 232 234 237 241 244 248 251 258 266 269 274 278 284 287 288 289 289 290 291 293 295 297 298 299 298 301 303
245 237 236 234 231 231 230 232 236 242 245 250 259 266 272 277 282 285 286 287 287 289 292 293 295 296 297 297 297 299 301 302
243 243 240 233 227 227 228 229 236 240 244 252 262 268 275 280 282 284 287 288 289 291 292 293 294 297 298 297 297 300 300 304
230 227 218 217 218 219 223 230 237 238 247 255 261 272 279 281 285 286 286 288 291 291 292 295 298 300 299 297 300 303 305 307
215 214 211 210 211 214 217 230 235 240 246 258 269 274 278 283 285 286 289 291 292 294 298 298 298 298 298 301 304 305 306 308
206 204 204 205 207 209 222 228 230 241 254 264 269 274 281 285 287 290 291 292 295 298 298 298 298 299 301 308 306 303 301 303
203 198 199 204 204 215 221 226 234 247 257 265 273 280 284 287 288 290 292 297 297 298 301 304 305 307 312 316 315 308 304 300
193 195 201 201 209 217 221 227 238 248 259 268 276 282 285 287 289 292 294 295 298 301 303 306 308 309 315 320 322 315 307 314
190 196 200 203 210 215 224 232 239 250 259 269 279 281 285 289 292 293 294 298 302 307 309 310 309 314 317 314 311 312 312 303
193 194 198 205 213 222 227 232 242 252 261 270 274 278 284 289 290 295 299 304 307 307 306 305 306 310 314 314 314 310 302 301
195 195 205 211 217 221 228 236 246 252 261 264 269 277 282 290 297 299 300 304 308 309 308 310 310 311 319 319 314 300 309 310
197 202 208 213 217 223 231 238 244 250 255 260 269 279 291 297 301 306 310 313 316 317 315 313 316 314 319 320 313 317 314 315
201 206 208 212 218 225 230 233 236 241 246 258 273 287 296 303 307 310 314 317 320 321 321 317 321 321 321 322 318 319 321 322